User: anonymous   Login
Location: Unspecified
(0.0000°N, 0.0000°E)
Time: 12:10:10
(UTC+01:00)
Language:

Milstar 3 Cent rocket - Orbit

View from above orbital plane
View from above orbital plane
View from above satellite
View from above satellite

Ground track
Ground track

The orbit data is extracted from the following two-line orbital elements,

1 25725U 99023B   16366.97488591 0.00000000  00000-0  00000-0 0    00
2 25725  28.3141 210.9459 2384418  11.8857 348.1137  9.67231005    02
Epoch (UTC): 31 December 2016 23:23:50
Eccentricity: 0.2384418
inclination: 28.3141°
perigee height: 708 km
apogee height: 5145 km
right ascension of ascending node: 210.9459°
argument of perigee: 11.8857°
revolutions per day: 9.67231005
mean anomaly at epoch: 348.1137°
orbit number at epoch: 0

The dashed part of the orbit path shows where the satellite is in the earth's shadow,  

DLR